Regional Weather Roundup
Issued by NWS

Home | Current Version | Previous Version | Text Only | Print | Product List | Glossary Off
Versions: 1 2 3 4 5 6 7 8 9 10 11 12 13 14 15 16 17 18 19 20 21 22 23 24 25 26 27 28 29 30 31 32 33 34 35 36 37 38 39 40 41 42 43 44 45 46 47 48 49 50

390
ASUS44 KLIX 010701
RWRLA
LOUISIANA WEATHER ROUNDUP
NATIONAL WEATHER SERVICE NEW ORLEANS LA
200 AM CDT WED OCT 01 2014

NOTE: "FAIR" INDICATES FEW OR NO CLOUDS BELOW 12,000 FEET WITH NO
      SIGNIFICANT WEATHER AND/OR OBSTRUCTIONS TO VISIBILITY.
      SKY/WX - SKY CONDITION AND SIGNIFICANT WEATHER.
      TMP - AIR TEMPERATURE.    DP   - DEWPOINT TEMPERATURE.
      RH  - RELATIVE HUMIDITY.  PRES - PRESSURE.
      HX  - HEAT INDEX.         WCI  - WIND CHILL INDEX.

*  THESE STATIONS ARE NOT NWS OR FAA STATIONS AND ARE NOT UNDER
   NWS QUALITY CONTROL.

LAZ040-048-061>063-065-066-069-010800-
SOUTHEAST LOUISIANA

CITY           SKY/WX    TMP DP  RH WIND       PRES   REMARKS
N.O. AUDUBON   NOT AVBL
N.O. INTL ARPT PTCLDY    76  71  85 SE3       29.88S
N.O. LAKEFRONT CLEAR     76  72  87 SE6       29.89R
N.O. DOWNTOWN* FAIR      77  70  78 SE6       29.89S
SLIDELL        CLEAR     70  67  90 CALM      29.89R
BATON ROUGE    CLEAR     73  71  93 E5        29.88R
BOOTHVILLE     CLEAR     77  74  90 E5        29.89S
BELLE CHASSE   MOCLDY    75  71  87 CALM      29.88S
BOGALUSA*      FOG       69  66  90 CALM      29.91R VSB 1/4
GALLIANO*      NOT AVBL
NEW ROADS*     FAIR      73  72  95 CALM      29.87S
GONZALES*      FAIR      74  74 100 CALM      29.87S
HAMMOND*       NOT AVBL
HOUMA*         PTCLDY   N/A N/A N/A CALM      29.87R
PORT FOURCHON* MOSUNNY   81  73  78 SE10      29.90S

$$

LAZ041-044-053-054-010800-
SOUTHWEST LOUISIANA

CITY           SKY/WX    TMP DP  RH WIND       PRES   REMARKS
LAKE CHARLES   CLEAR     75  74  96 SE3       29.83S FOG
LAFAYETTE      CLEAR     75  74  96 SE3       29.85F
PATTERSON      PTCLDY    75  73  94 E3          N/A
SALT POINT       N/A     79  76  90 CALM      29.85S
NEW IBERIA     CLEAR     76  74  93 SE7       29.86S
CHENAULT AIRPK MOCLDY    74  74  98 E3        29.84S FOG

$$

LAZ027-028-010800-
CENTRAL LOUISIANA

CITY           SKY/WX    TMP DP  RH WIND       PRES   REMARKS
FORT POLK      PTCLDY    73  71  95 SE5       29.85R
ALEXANDRIA INT MOCLDY    74  72  93 SE6       29.84R
ALEXANDRIA     MOCLDY    71  69  93 CALM      29.86R

$$

LAZ001-002-010800-
NORTHWEST LOUISIANA

CITY           SKY/WX    TMP DP  RH WIND       PRES   REMARKS
SHREVEPORT     MOCLDY    76  70  82 S6        29.82R
BARKSDALE AFB  MOCLDY    73  69  85 SE5       29.83R
DTN SHREVEPORT MOCLDY    76  69  79 SE3       29.82S

$$

LAZ014-016-010800-
NORTHEAST LOUISIANA

CITY           SKY/WX    TMP DP  RH WIND       PRES   REMARKS
MONROE         CLEAR     74  67  78 CALM      29.86R
TALLULAH       CLEAR     75  69  81 S7        29.87R

$$




USA.gov is the U.S. government's official web portal to all federal, state and local government web resources and services.